GW7132 Weather Reports


Display with metric or nautical units.
time (UTC)temp
F
wind
direction
speed
MPH
gust
MPH
rain 1hr
in
rain 24hr
in
rain mn
in
humidity
%
barometer
mb
20260509223900 51 276 1.0 1.0 0.00 0.27 0.27 95 985.7
20260509223357 51 237 2.0 3.0 0.00 0.27 0.27 95 985.6
20260509222854 51 281 2.0 4.0 0.00 0.27 0.27 95 985.7
20260509222354 51 280 0.0 1.0 0.00 0.27 0.27 95 985.6
20260509221850 51 269 1.0 1.0 0.00 0.27 0.27 95 985.6
20260509221347 50 304 2.0 2.0 0.00 0.27 0.27 95 985.6
20260509220843 50 269 0.0 1.0 0.00 0.27 0.27 96 985.6
20260509220339 50 223 4.0 6.0 0.00 0.27 0.27 96 985.7
20260509215835 50 285 1.0 2.0 0.00 0.27 0.27 96 985.7
20260509215332 50 174 3.0 6.0 0.00 0.27 0.27 95 985.7
20260509214829 50 247 1.0 1.0 0.00 0.27 0.27 95 986.0
20260509214326 50 283 4.0 10.0 0.00 0.27 0.27 96 985.9
20260509213823 50 195 4.0 6.0 0.00 0.27 0.27 95 985.9
20260509213318 50 302 1.0 1.0 0.00 0.27 0.27 96 986.0
20260509212816 50 78 3.0 3.0 0.00 0.27 0.27 96 985.8
20260509212313 50 261 1.0 1.0 0.00 0.27 0.27 96 986.0
20260509211809 50 152 3.0 4.0 0.00 0.27 0.27 96 986.1
20260509211305 50 82 3.0 4.0 0.00 0.27 0.27 96 986.0
20260509210802 50 250 2.0 3.0 0.00 0.27 0.27 96 986.2
20260509210300 50 303 4.0 7.0 0.00 0.27 0.27 96 986.2
20260509205759 50 297 1.0 2.0 0.00 0.27 0.27 96 986.1
20260509205254 50 246 2.0 2.0 0.00 0.27 0.27 96 986.2
20260509204750 50 288 0.0 1.0 0.00 0.27 0.27 96 986.3
20260509204246 50 255 4.0 8.0 0.00 0.27 0.27 96 986.3
20260509203743 50 291 0.0 1.0 0.00 0.27 0.27 96 986.2
20260509203241 50 307 2.0 3.0 0.00 0.27 0.27 96 986.5
20260509202736 50 248 2.0 2.0 0.00 0.27 0.27 96 986.6
20260509202232 50 276 3.0 4.0 0.00 0.27 0.27 96 986.4
20260509201727 50 286 2.0 2.0 0.00 0.27 0.27 96 986.4
20260509201224 50 273 1.0 2.0 0.00 0.27 0.27 96 986.5
20260509200721 50 286 1.0 1.0 0.00 0.27 0.27 96 986.6
20260509200220 50 182 2.0 3.0 0.00 0.27 0.27 96 986.4
20260509195717 50 281 0.0 0.0 0.00 0.27 0.27 96 986.5
20260509195213 50 279 1.0 2.0 0.00 0.27 0.27 96 986.6
20260509194713 50 266 1.0 2.0 0.00 0.27 0.27 96 986.6
20260509194210 50 281 0.0 1.0 0.00 0.27 0.27 97 986.5
20260509193706 49 274 3.0 3.0 0.00 0.27 0.27 97 986.7
20260509193206 49 279 0.0 0.0 0.00 0.27 0.27 97 986.8
20260509192703 49 290 3.0 3.0 0.00 0.27 0.27 97 987.0
20260509192158 49 290 3.0 4.0 0.00 0.27 0.27 96 987.0
20260509191653 49 263 0.0 1.0 0.00 0.27 0.27 97 987.1
20260509191150 49 278 2.0 2.0 0.00 0.27 0.27 97 987.0
20260509190646 49 229 2.0 3.0 0.00 0.27 0.27 96 986.9
20260509190144 49 302 6.0 8.0 0.00 0.27 0.27 96 987.1
20260509185642 49 274 1.0 1.0 0.00 0.27 0.27 97 987.0
20260509185137 49 253 2.0 3.0 0.00 0.27 0.27 97 987.1
20260509184635 49 288 1.0 1.0 0.00 0.27 0.27 97 987.0
20260509184132 49 303 0.0 1.0 0.00 0.27 0.27 98 987.0
20260509183628 49 267 2.0 2.0 0.00 0.27 0.27 97 987.1
20260509183123 49 289 2.0 3.0 0.00 0.27 0.27 97 987.1
20260509182619 49 244 1.0 2.0 0.00 0.27 0.27 97 987.2
20260509182117 49 294 2.0 2.0 0.05 0.27 0.27 98 987.1
20260509181615 49 284 4.0 6.0 0.05 0.27 0.27 98 987.2
20260509181112 49 261 1.0 1.0 0.00 0.26 0.26 98 987.1
20260509180608 49 281 1.0 1.0 0.00 0.26 0.26 98 987.1
20260509180105 48 293 1.0 2.0 0.00 0.26 0.26 98 987.2
20260509175600 48 296 0.0 0.0 0.00 0.26 0.26 98 987.2
20260509175058 49 309 2.0 2.0 0.00 0.26 0.26 98 987.2
20260509174554 49 262 4.0 6.0 0.00 0.26 0.26 98 987.0
20260509174049 49 288 0.0 1.0 0.00 0.26 0.26 98 986.9
20260509173544 49 272 0.0 1.0 0.00 0.26 0.26 98 986.8
20260509173040 48 255 1.0 2.0 0.00 0.26 0.26 98 987.0
20260509172538 49 271 0.0 1.0 0.00 0.26 0.26 98 986.9
20260509172033 49 270 2.0 3.0 0.00 0.26 0.26 98 986.9
20260509171529 49 295 1.0 1.0 0.00 0.26 0.26 98 986.8
20260509171026 49 298 1.0 1.0 0.00 0.26 0.26 97 986.9
20260509170521 49 116 2.0 3.0 0.00 0.26 0.26 97 986.8
20260509170018 49 257 2.0 2.0 0.00 0.26 0.26 98 987.0
20260509165516 48 286 1.0 3.0 0.07 0.26 0.26 98 987.0
20260509165012 48 247 5.0 7.0 0.07 0.26 0.26 98 987.1
20260509164509 48 277 2.0 3.0 0.00 0.25 0.25 97 987.2
20260509164004 49 128 1.0 2.0 0.00 0.25 0.25 98 987.1
20260509163502 48 255 4.0 6.0 0.00 0.25 0.25 98 987.1
20260509163001 48 253 2.0 3.0 0.05 0.25 0.25 98 987.2
20260509162500 48 224 4.0 6.0 0.05 0.25 0.25 98 987.1
20260509161955 48 276 3.0 4.0 0.00 0.24 0.24 98 987.4
20260509161452 48 283 4.0 6.0 0.00 0.24 0.24 98 987.4
20260509160947 48 298 1.0 1.0 0.07 0.24 0.24 98 987.4
20260509160443 48 49 1.0 2.0 0.07 0.24 0.24 98 987.5
20260509155938 48 279 1.0 3.0 0.07 0.24 0.24 98 987.6
20260509155435 48 258 0.0 0.0 0.00 0.23 0.23 98 987.4
20260509154932 48 297 1.0 1.0 0.00 0.23 0.23 98 987.6
20260509154428 47 6 2.0 2.0 0.00 0.23 0.23 98 987.5
20260509153925 48 280 2.0 2.0 0.00 0.23 0.23 98 987.6
20260509153422 48 301 1.0 2.0 0.07 0.23 0.23 98 987.7
20260509152919 47 271 3.0 3.0 0.07 0.23 0.23 98 987.7
20260509152415 47 291 1.0 2.0 0.07 0.23 0.23 97 987.8
20260509151912 47 248 1.0 2.0 0.00 0.22 0.22 97 987.8
20260509151408 47 260 2.0 2.0 0.05 0.22 0.22 98 987.9
20260509150907 47 282 0.0 1.0 0.05 0.22 0.22 98 988.0
20260509150404 47 1 1.0 2.0 0.07 0.21 0.21 98 988.0
20260509145902 47 286 1.0 1.0 0.07 0.21 0.21 98 988.0
20260509145401 47 278 1.0 2.0 0.05 0.20 0.20 98 988.4
20260509144858 47 278 2.0 2.0 0.05 0.20 0.20 98 988.2
20260509144355 47 34 1.0 2.0 0.07 0.19 0.19 98 988.2
20260509143852 47 311 0.0 1.0 0.07 0.19 0.19 98 988.2
20260509143349 47 305 1.0 2.0 0.05 0.18 0.18 98 988.2
20260509142845 47 326 1.0 1.0 0.05 0.18 0.18 98 988.4
20260509142341 47 267 0.0 0.0 0.07 0.17 0.17 98 988.2
20260509141837 47 304 1.0 1.0 0.07 0.17 0.17 98 988.2
20260509141335 47 285 1.0 1.0 0.00 0.16 0.16 98 988.1
20260509140831 47 281 0.0 1.0 0.00 0.16 0.16 98 988.4
20260509140328 47 277 2.0 2.0 0.05 0.16 0.16 98 988.2
20260509135826 47 284 1.0 2.0 0.05 0.16 0.16 98 988.2
20260509135323 46 287 0.0 0.0 0.00 0.15 0.15 99 988.2
20260509134820 46 41 2.0 3.0 0.07 0.15 0.15 98 988.2
20260509134318 46 306 0.0 0.0 0.07 0.15 0.15 99 988.4
20260509133814 46 280 1.0 2.0 0.05 0.14 0.14 98 988.5
20260509133311 46 284 0.0 1.0 0.05 0.14 0.14 99 988.5
20260509132810 46 290 0.0 0.0 0.00 0.13 0.13 99 988.6
20260509132308 46 280 0.0 1.0 0.07 0.13 0.13 99 988.5
20260509131804 45 274 0.0 0.0 0.07 0.13 0.13 98 988.5
20260509131301 45 262 1.0 2.0 0.05 0.12 0.12 98 988.6
20260509130757 45 280 0.0 0.0 0.05 0.12 0.12 98 988.6
20260509130253 45 315 0.0 0.0 0.07 0.11 0.11 98 988.5
20260509125750 45 276 0.0 0.0 0.07 0.11 0.11 98 988.7
20260509125247 45 349 0.0 0.0 0.07 0.10 0.10 98 988.7
20260509124743 45 289 0.0 0.0 0.12 0.10 0.10 98 988.7
20260509124240 45 283 0.0 0.0 0.17 0.09 0.09 98 988.6
20260509123738 45 299 2.0 2.0 0.19 0.08 0.08 98 988.6
20260509123235 45 279 0.0 1.0 0.12 0.06 0.06 98 988.6
20260509122731 45 263 1.0 1.0 0.12 0.05 0.05 98 988.9
20260509122227 44 290 1.0 1.0 0.12 0.04 0.04 98 988.8
20260509121724 45 264 1.0 1.0 0.05 0.03 0.03 98 988.8
20260509121222 44 250 1.0 1.0 0.12 0.03 0.03 98 989.0
20260509120720 44 273 0.0 1.0 0.07 0.02 0.02 98 988.8
20260509120217 44 283 0.0 0.0 0.05 0.01 0.01 98 988.8
20260509115715 44 293 0.0 0.0 0.05 0.01 0.01 98 988.9
20260509115212 44 267 0.0 0.0 0.00 0.00 0.00 98 988.9
20260509114711 44 275 0.0 1.0 0.00 0.00 0.00 98 989.0
20260509114209 44 251 1.0 2.0 0.00 0.00 0.00 97 988.9
20260509113707 44 281 0.0 0.0 0.00 0.00 0.00 97 988.8
20260509113204 44 246 1.0 1.0 0.00 0.00 0.00 98 988.8
20260509112700 44 264 2.0 3.0 0.00 0.00 0.00 97 988.7
20260509112158 44 265 0.0 1.0 0.00 0.00 0.00 97 989.0
20260509111655 43 279 1.0 1.0 0.00 0.00 0.00 97 989.0
20260509111151 43 281 1.0 2.0 0.00 0.00 0.00 97 988.9
20260509110649 43 282 0.0 1.0 0.00 0.00 0.00 97 988.9
20260509110145 43 286 1.0 1.0 0.00 0.00 0.00 97 988.6
20260509105644 43 353 3.0 4.0 0.00 0.00 0.00 97 988.6
20260509105141 43 326 3.0 3.0 0.00 0.00 0.00 97 988.7
20260509104638 43 320 0.0 1.0 0.00 0.00 0.00 96 988.7
20260509104134 43 217 2.0 2.0 0.00 0.00 0.00 96 988.6
20260509103632 43 238 1.0 3.0 0.00 0.00 0.00 96 988.4
20260509103130 43 259 4.0 6.0 0.00 0.00 0.00 96 988.5
20260509102627 43 276 5.0 6.0 0.00 0.00 0.00 96 988.6
20260509102124 43 273 1.0 1.0 0.00 0.00 0.00 96 988.2
20260509101621 42 258 0.0 1.0 0.00 0.00 0.00 95 988.4
20260509101117 42 304 2.0 3.0 0.00 0.00 0.00 95 988.4
20260509100614 42 285 0.0 0.0 0.00 0.00 0.00 95 988.4
20260509100112 42 297 1.0 1.0 0.00 0.00 0.00 94 988.2
20260509095608 42 239 0.0 1.0 0.00 0.00 0.00 94 988.5
20260509095106 42 275 0.0 0.0 0.00 0.00 0.00 93 988.5
20260509094602 42 274 0.0 0.0 0.00 0.00 0.00 93 988.5
20260509094059 42 267 1.0 1.0 0.00 0.00 0.00 92 988.4
20260509093558 42 288 1.0 1.0 0.00 0.00 0.00 92 988.6
20260509093055 42 270 1.0 1.0 0.00 0.00 0.00 91 988.7
20260509092552 42 239 0.0 1.0 0.00 0.00 0.00 90 988.7
20260509092051 41 291 0.0 1.0 0.00 0.00 0.00 90 988.7
20260509091548 41 280 1.0 1.0 0.00 0.00 0.00 89 988.8
20260509091044 41 270 0.0 0.0 0.00 0.00 0.00 90 988.5
20260509090542 41 269 2.0 2.0 0.00 0.00 0.00 90 988.7
20260509090040 41 294 1.0 1.0 0.00 0.00 0.00 88 988.7
20260509085536 41 266 0.0 0.0 0.00 0.00 0.00 89 988.8
20260509085032 41 334 1.0 1.0 0.00 0.00 0.00 89 989.0
20260509084530 41 275 0.0 0.0 0.00 0.00 0.00 88 988.9
20260509084027 41 242 1.0 2.0 0.00 0.00 0.00 88 988.9
20260509083524 41 267 1.0 1.0 0.00 0.00 0.00 88 988.9
20260509083020 41 294 0.0 0.0 0.00 0.00 0.00 88 989.0
20260509082518 41 267 0.0 2.0 0.00 0.00 0.00 87 988.9
20260509082015 41 329 1.0 1.0 0.00 0.00 0.00 86 989.1
20260509081512 41 306 1.0 1.0 0.00 0.00 0.00 85 989.0
20260509081009 41 322 1.0 1.0 0.00 0.00 0.00 84 989.0
20260509080507 41 280 0.0 1.0 0.00 0.00 0.00 82 989.0
20260509080005 41 314 1.0 1.0 0.00 0.00 0.00 80 989.2
20260509075502 41 321 1.0 1.0 0.00 0.00 0.00 78 989.2
20260509074959 41 304 1.0 1.0 0.00 0.00 0.00 80 989.4
20260509074457 41 281 0.0 0.0 0.00 0.00 0.00 81 989.3
20260509073953 41 306 0.0 0.0 0.00 0.00 0.00 80 989.1
20260509073449 41 305 0.0 1.0 0.00 0.00 0.00 75 988.9
20260509072946 41 300 0.0 0.0 0.00 0.00 0.00 72 989.1
20260509072443 41 300 0.0 0.0 0.00 0.00 0.00 77 989.0
20260509071940 41 300 0.0 0.0 0.00 0.00 0.00 73 989.0
20260509071436 41 300 0.0 0.0 0.00 0.00 0.00 75 989.1
20260509070934 41 300 0.0 0.0 0.00 0.00 0.00 70 989.1
20260509070431 41 300 0.0 0.0 0.00 0.00 0.00 70 989.1
20260509065926 41 297 0.0 1.0 0.00 0.00 0.00 74 989.2
20260509065422 41 271 0.0 0.0 0.00 0.00 0.00 73 989.2
20260509064919 41 271 0.0 0.0 0.00 0.00 0.00 74 989.2
20260509064416 40 271 0.0 0.0 0.00 0.00 0.00 71 989.4
20260509063914 40 271 0.0 0.0 0.00 0.00 0.00 69 989.3
20260509063410 40 271 1.0 1.0 0.00 0.00 0.00 71 989.4
20260509062907 40 270 0.0 0.0 0.00 0.00 0.00 71 989.3
20260509062404 39 270 0.0 0.0 0.00 0.00 0.00 71 989.4
20260509061901 39 270 0.0 0.0 0.00 0.00 0.00 71 989.4
20260509061359 39 270 0.0 0.0 0.00 0.00 0.00 72 989.6
20260509060856 39 270 0.0 0.0 0.00 0.00 0.00 70 989.6
20260509060353 39 270 0.0 0.0 0.00 0.00 0.00 73 989.5
20260509055848 39 270 0.0 0.0 0.00 0.00 0.00 73 989.6
20260509055344 39 270 0.0 0.0 0.00 0.00 0.00 74 989.6
20260509054841 39 270 0.0 0.0 0.00 0.00 0.00 72 989.8
20260509054338 38 270 0.0 0.0 0.00 0.00 0.00 74 990.2
20260509053836 38 270 0.0 0.0 0.00 0.00 0.00 71 989.9
20260509053333 38 270 0.0 0.0 0.00 0.00 0.00 71 990.1
20260509052831 38 270 0.0 0.0 0.00 0.00 0.00 70 990.1
20260509052329 39 270 0.0 0.0 0.00 0.00 0.00 70 990.1
20260509051826 39 270 0.0 0.0 0.00 0.00 0.00 72 990.0
20260509051324 39 270 0.0 0.0 0.00 0.00 0.00 69 990.1
20260509050820 38 271 0.0 1.0 0.00 0.00 0.00 69 990.1
20260509050317 38 271 0.0 0.0 0.00 0.00 0.00 69 990.2
20260509045814 38 271 0.0 0.0 0.00 0.09 0.09 69 990.2
20260509045311 38 271 0.0 0.0 0.00 0.09 0.09 69 990.1
20260509044808 39 270 0.0 1.0 0.00 0.09 0.09 68 990.2
20260509044306 39 270 0.0 0.0 0.00 0.09 0.09 69 990.1
20260509043802 39 270 0.0 0.0 0.00 0.09 0.09 70 990.1
20260509043258 39 270 0.0 0.0 0.00 0.09 0.09 74 990.2
20260509042754 39 270 0.0 1.0 0.00 0.09 0.09 70 990.3
20260509042250 39 270 0.0 0.0 0.00 0.09 0.09 70 990.3
20260509041747 39 270 0.0 0.0 0.00 0.09 0.09 68 990.4
20260509041244 39 270 0.0 0.0 0.00 0.09 0.09 72 990.4
20260509040743 40 271 0.0 0.0 0.00 0.09 0.09 67 990.3
20260509040240 39 270 0.0 1.0 0.00 0.09 0.09 70 990.3
20260509035736 39 271 0.0 0.0 0.00 0.09 0.09 74 990.2
20260509035233 40 271 0.0 0.0 0.00 0.09 0.09 67 990.3
20260509034730 40 271 0.0 0.0 0.00 0.09 0.09 64 990.1
20260509034228 40 271 0.0 0.0 0.00 0.09 0.09 66 990.3
20260509033725 40 270 1.0 1.0 0.00 0.09 0.09 69 990.4
20260509033222 41 271 0.0 0.0 0.00 0.09 0.09 66 990.4
20260509032719 41 271 0.0 0.0 0.00 0.09 0.09 67 990.4
20260509032216 41 271 0.0 0.0 0.00 0.09 0.09 69 990.5
20260509031713 41 272 0.0 0.0 0.00 0.09 0.09 66 990.5
20260509031211 41 273 0.0 0.0 0.00 0.09 0.09 63 990.4
20260509030709 41 273 0.0 0.0 0.00 0.09 0.09 69 990.6
20260509030205 42 273 0.0 0.0 0.00 0.09 0.09 67 990.4
20260509025701 42 273 0.0 0.0 0.00 0.09 0.09 69 990.5
20260509025158 42 272 0.0 0.0 0.00 0.09 0.09 69 990.5
20260509024653 42 273 0.0 0.0 0.00 0.09 0.09 71 990.5
20260509024149 42 273 0.0 0.0 0.00 0.09 0.09 66 990.5
20260509023647 42 273 0.0 0.0 0.00 0.09 0.09 68 990.5
20260509023144 42 273 0.0 0.0 0.00 0.09 0.09 69 990.6
20260509022640 42 273 0.0 0.0 0.00 0.09 0.09 66 990.6
20260509022138 41 273 0.0 0.0 0.00 0.09 0.09 69 990.7
20260509021635 41 273 0.0 0.0 0.00 0.09 0.09 68 990.7
20260509021132 41 273 0.0 0.0 0.00 0.09 0.09 68 990.9
20260509020630 41 273 0.0 0.0 0.00 0.09 0.09 65 990.4
20260509020126 41 273 0.0 0.0 0.00 0.09 0.09 71 990.6
20260509015626 41 273 0.0 0.0 0.00 0.09 0.09 67 990.5
20260509015123 41 273 0.0 0.0 0.00 0.09 0.09 64 990.4
20260509014619 40 273 0.0 0.0 0.00 0.09 0.09 66 990.3
20260509014115 41 273 0.0 0.0 0.00 0.09 0.09 66 990.5
20260509013613 41 273 0.0 0.0 0.00 0.09 0.09 66 990.3
20260509013108 41 273 0.0 0.0 0.00 0.09 0.09 66 990.3
20260509012605 41 273 0.0 0.0 0.00 0.09 0.09 66 990.4
20260509012102 41 273 0.0 0.0 0.00 0.09 0.09 66 990.0
20260509011600 41 273 0.0 0.0 0.00 0.09 0.09 64 990.1
20260509011056 41 273 0.0 0.0 0.00 0.09 0.09 66 990.0
20260509010554 41 273 0.0 0.0 0.00 0.09 0.09 65 990.0
20260509010051 41 273 0.0 0.0 0.00 0.09 0.09 65 989.9
20260509005549 41 273 0.0 0.0 0.00 0.09 0.09 67 990.0
20260509005044 41 273 0.0 0.0 0.00 0.09 0.09 66 989.7
20260509004541 41 273 0.0 1.0 0.00 0.09 0.09 68 989.9
20260509004038 41 273 0.0 0.0 0.00 0.09 0.09 68 989.6
20260509003536 41 273 0.0 0.0 0.00 0.09 0.09 66 989.7
20260509003033 42 273 0.0 0.0 0.00 0.09 0.09 65 989.6
20260509002531 42 273 0.0 0.0 0.00 0.09 0.09 64 989.6
20260509002028 42 272 0.0 1.0 0.00 0.09 0.09 66 989.5
20260509001525 42 273 0.0 0.0 0.00 0.09 0.09 65 989.4
20260509001021 42 272 0.0 0.0 0.00 0.09 0.09 65 989.4
20260509000520 42 273 0.0 0.0 0.00 0.09 0.09 68 989.3
20260509000015 43 273 0.0 0.0 0.00 0.09 0.09 69 989.3
20260508235513 43 273 0.0 0.0 0.00 0.09 0.09 66 989.3
20260508235009 44 273 0.0 0.0 0.00 0.09 0.09 68 989.2
20260508234507 44 273 0.0 0.0 0.00 0.09 0.09 72 989.2
20260508234004 44 273 0.0 0.0 0.00 0.09 0.09 69 989.3
20260508233503 45 273 0.0 0.0 0.00 0.09 0.09 69 989.0
20260508232959 46 273 0.0 0.0 0.00 0.09 0.09 64 989.2
20260508232456 47 273 0.0 0.0 0.00 0.09 0.09 52 989.1
20260508231953 47 282 0.0 0.0 0.00 0.09 0.09 58 989.0
20260508231451 48 270 0.0 1.0 0.00 0.09 0.09 58 989.1
20260508230948 48 273 0.0 0.0 0.00 0.09 0.09 60 989.1
20260508230444 49 305 1.0 2.0 0.00 0.09 0.09 49 989.0
20260508225941 49 272 0.0 1.0 0.00 0.09 0.09 50 989.1
20260508225438 49 287 1.0 1.0 0.00 0.09 0.09 47 989.0
20260508224935 50 284 2.0 2.0 0.00 0.09 0.09 45 989.1
20260508224433 50 288 1.0 2.0 0.00 0.09 0.09 42 988.9